Location: Igri�s
(42.2144°N, 0.4320°W)
Time: 18:48:34
(UTC+00:00)

Meteor 1-4 Rocket - Pass Details

Date: 13 August 2020
Orbit: 449 x 502 km, 81.2° (Epoch: 19 September)

Event Time Altitude Azimuth Distance (km) Brightness Sun altitude
Rises 19:33:57 0° 6° (N) 2,471 6.4 -5.8°
Reaches altitude 10° 19:36:30 10° 26° (NNE) 1,588 5.2 -6.2°
Maximum altitude 19:38:59 18° 72° (ENE) 1,165 4.1 -6.6°
Drops below altitude 10° 19:41:27 10° 118° (ESE) 1,577 4.5 -7.0°
Enters shadow 19:41:39 - 120° (ESE) 1,639 4.5 -7.1°
